NKS4 KLAX-KLAS

Flight info

Callsign NKS4
Flight time N/A
Altitude 27000
Route ORCKA5 MISEN RNDRZ4
Aircraft A320/M-SDE3FGHIRWY/LB1

Departure

Time N/A
Airport Los Angeles International Airport (KLAX)

Arrival

Time 2026-05-04 04:34
Airport Harry Reid International Airport (KLAS)
Time Latitude Longitude Altitude Speed Heading
2026-05-04 03:56 34.97889 -116.62414 26851 ft 497 kts 53°
2026-05-04 03:57 34.99715 -116.59149 26845 ft 497 kts 53°
2026-05-04 03:57 35.01661 -116.55667 26837 ft 497 kts 53°
2026-05-04 03:57 35.03605 -116.52194 26825 ft 497 kts 53°
2026-05-04 03:57 35.05560 -116.48705 26827 ft 496 kts 53°
2026-05-04 03:58 35.09469 -116.41753 26822 ft 501 kts 52°
2026-05-04 03:58 35.11679 -116.38475 26533 ft 497 kts 44°
2026-05-04 03:58 35.14031 -116.35397 25519 ft 493 kts 43°
2026-05-04 03:59 35.16356 -116.32395 24998 ft 478 kts 43°
2026-05-04 03:59 35.18611 -116.29500 24574 ft 464 kts 43°
2026-05-04 03:59 35.20819 -116.26669 24149 ft 459 kts 43°
2026-05-04 03:59 35.23021 -116.23843 23701 ft 459 kts 43°
2026-05-04 04:00 35.25186 -116.20987 23230 ft 459 kts 45°
2026-05-04 04:00 35.27325 -116.18079 22764 ft 457 kts 46°
2026-05-04 04:00 35.29426 -116.15167 22322 ft 455 kts 46°
2026-05-04 04:00 35.31501 -116.12267 21858 ft 452 kts 46°
2026-05-04 04:01 35.33572 -116.09379 21396 ft 450 kts 46°
2026-05-04 04:01 35.35638 -116.06519 20932 ft 448 kts 46°
2026-05-04 04:01 35.37709 -116.03668 20445 ft 447 kts 46°
2026-05-04 04:01 35.39775 -116.00833 19985 ft 445 kts 47°
2026-05-04 04:02 35.41820 -115.98028 19656 ft 438 kts 47°
2026-05-04 04:02 35.43834 -115.95257 19058 ft 431 kts 47°
2026-05-04 04:02 35.45797 -115.92548 18528 ft 418 kts 47°
2026-05-04 04:02 35.47692 -115.89928 18075 ft 403 kts 48°
2026-05-04 04:03 35.49512 -115.87410 17691 ft 385 kts 48°
2026-05-04 04:03 35.51265 -115.84987 17395 ft 377 kts 48°
2026-05-04 04:03 35.52998 -115.82590 16959 ft 375 kts 49°
2026-05-04 04:03 35.54727 -115.80202 16539 ft 372 kts 49°
2026-05-04 04:04 35.56435 -115.77841 16255 ft 366 kts 49°
2026-05-04 04:04 35.58096 -115.75541 16124 ft 355 kts 50°
2026-05-04 04:04 35.59714 -115.73298 15867 ft 349 kts 50°
2026-05-04 04:04 35.61329 -115.71093 15582 ft 344 kts 49°
2026-05-04 04:05 35.62931 -115.68935 15341 ft 341 kts 49°
2026-05-04 04:05 35.64525 -115.66798 15103 ft 338 kts 49°
2026-05-04 04:05 35.66087 -115.64707 14860 ft 336 kts 49°
2026-05-04 04:05 35.67675 -115.62571 14617 ft 333 kts 50°
2026-05-04 04:06 35.69212 -115.60490 14383 ft 332 kts 50°
2026-05-04 04:06 35.70775 -115.58369 14140 ft 330 kts 50°
2026-05-04 04:06 35.72340 -115.56319 13895 ft 328 kts 45°
2026-05-04 04:06 35.74143 -115.54645 13665 ft 329 kts 32°
2026-05-04 04:07 35.76156 -115.53238 13402 ft 329 kts 31°
2026-05-04 04:07 35.78115 -115.51874 13160 ft 327 kts 31°
2026-05-04 04:07 35.80091 -115.50494 13053 ft 326 kts 31°
2026-05-04 04:07 35.82072 -115.49104 13069 ft 327 kts 31°
2026-05-04 04:08 35.84051 -115.47716 13073 ft 328 kts 31°
2026-05-04 04:08 35.86033 -115.46321 13076 ft 336 kts 32°
2026-05-04 04:08 35.88105 -115.44842 13073 ft 349 kts 32°
2026-05-04 04:08 35.90218 -115.43328 13062 ft 351 kts 32°
2026-05-04 04:09 35.92301 -115.41853 12936 ft 341 kts 31°
2026-05-04 04:09 35.94344 -115.40435 12680 ft 335 kts 31°
2026-05-04 04:09 35.96365 -115.39047 12415 ft 329 kts 31°
2026-05-04 04:09 35.98258 -115.37532 12157 ft 321 kts 43°
2026-05-04 04:10 35.99757 -115.35523 11909 ft 316 kts 59°
2026-05-04 04:10 36.00769 -115.33147 11640 ft 310 kts 74°
2026-05-04 04:10 36.01261 -115.30596 11387 ft 304 kts 88°
2026-05-04 04:10 36.01266 -115.28016 11120 ft 297 kts 98°
2026-05-04 04:11 36.01136 -115.25471 10792 ft 297 kts 97°
2026-05-04 04:11 36.01008 -115.22932 10419 ft 297 kts 97°
2026-05-04 04:11 36.00880 -115.20393 10038 ft 298 kts 97°
2026-05-04 04:11 36.00755 -115.17861 9862 ft 290 kts 97°
2026-05-04 04:12 36.00637 -115.15418 9751 ft 280 kts 97°
2026-05-04 04:12 36.00520 -115.13062 9624 ft 272 kts 97°
2026-05-04 04:12 36.00406 -115.10764 9500 ft 263 kts 97°
2026-05-04 04:12 36.00295 -115.08517 9166 ft 264 kts 97°
2026-05-04 04:13 36.00178 -115.06239 8802 ft 266 kts 97°
2026-05-04 04:13 36.00057 -115.03962 8454 ft 266 kts 97°
2026-05-04 04:13 35.99934 -115.01667 8096 ft 269 kts 98°
2026-05-04 04:13 35.99851 -114.99330 7501 ft 279 kts 94°
2026-05-04 04:14 35.99841 -114.96898 6747 ft 295 kts 92°
2026-05-04 04:14 35.99864 -114.94291 6282 ft 300 kts 92°
2026-05-04 04:14 35.99896 -114.91754 6152 ft 291 kts 92°
2026-05-04 04:14 35.99923 -114.89301 6170 ft 276 kts 92°
2026-05-04 04:15 35.99942 -114.87062 6397 ft 254 kts 93°
2026-05-04 04:15 35.99951 -114.84912 6630 ft 255 kts 94°
2026-05-04 04:15 35.99952 -114.82697 6865 ft 260 kts 94°
2026-05-04 04:15 35.99950 -114.80458 6992 ft 261 kts 94°
2026-05-04 04:16 35.99950 -114.78221 7016 ft 261 kts 94°
2026-05-04 04:16 35.99951 -114.75965 7017 ft 262 kts 94°
2026-05-04 04:16 35.99953 -114.73723 7012 ft 260 kts 94°
2026-05-04 04:16 35.99953 -114.71495 7002 ft 260 kts 94°
2026-05-04 04:17 35.99953 -114.69262 6994 ft 260 kts 94°
2026-05-04 04:17 35.99953 -114.67036 6989 ft 260 kts 94°
2026-05-04 04:17 35.99951 -114.64801 6979 ft 258 kts 95°
2026-05-04 04:17 35.99945 -114.62597 6969 ft 256 kts 95°
2026-05-04 04:18 35.99938 -114.60394 6961 ft 259 kts 94°
2026-05-04 04:18 35.99932 -114.58170 6951 ft 259 kts 94°
2026-05-04 04:18 35.99929 -114.55948 6945 ft 259 kts 94°
2026-05-04 04:18 35.99928 -114.53723 6942 ft 259 kts 94°
2026-05-04 04:19 35.99923 -114.51493 6934 ft 259 kts 94°
2026-05-04 04:19 35.99918 -114.49268 6923 ft 259 kts 95°
2026-05-04 04:19 35.99913 -114.47070 6919 ft 259 kts 94°
2026-05-04 04:19 35.99909 -114.44845 6911 ft 259 kts 94°
2026-05-04 04:20 35.99905 -114.42627 6906 ft 259 kts 94°
2026-05-04 04:20 35.99901 -114.40405 6905 ft 258 kts 95°
2026-05-04 04:20 35.99894 -114.38185 6903 ft 257 kts 94°
2026-05-04 04:20 35.99885 -114.35987 6906 ft 257 kts 95°
2026-05-04 04:21 36.00012 -114.33776 6904 ft 262 kts 77°
2026-05-04 04:21 36.00910 -114.31803 6909 ft 269 kts 46°
2026-05-04 04:21 36.02478 -114.30574 6908 ft 270 kts 17°
2026-05-04 04:21 36.04322 -114.30403 6910 ft 265 kts 346°
2026-05-04 04:22 36.05970 -114.31317 6909 ft 259 kts 317°
2026-05-04 04:22 36.07077 -114.32993 6911 ft 250 kts 292°
2026-05-04 04:22 36.07838 -114.34923 6907 ft 250 kts 291°
2026-05-04 04:22 36.08565 -114.36868 6901 ft 248 kts 286°
2026-05-04 04:23 36.09027 -114.38881 6902 ft 245 kts 274°
2026-05-04 04:23 36.09198 -114.40973 6900 ft 244 kts 269°
2026-05-04 04:23 36.09295 -114.43061 6896 ft 244 kts 269°
2026-05-04 04:23 36.09366 -114.45159 6897 ft 244 kts 268°
2026-05-04 04:24 36.09425 -114.47251 6903 ft 243 kts 268°
2026-05-04 04:24 36.09480 -114.49332 6906 ft 242 kts 268°
2026-05-04 04:24 36.09534 -114.51421 6913 ft 244 kts 266°
2026-05-04 04:24 36.09524 -114.53516 6922 ft 243 kts 263°
2026-05-04 04:25 36.09125 -114.55487 6927 ft 235 kts 244°
2026-05-04 04:25 36.08443 -114.57302 6938 ft 236 kts 241°
2026-05-04 04:25 36.07716 -114.59154 6932 ft 236 kts 244°
2026-05-04 04:25 36.07426 -114.61172 6957 ft 244 kts 266°
2026-05-04 04:26 36.07478 -114.63268 6960 ft 242 kts 267°
2026-05-04 04:26 36.07498 -114.65345 6968 ft 241 kts 265°
2026-05-04 04:26 36.07377 -114.67407 6973 ft 240 kts 262°
2026-05-04 04:26 36.07309 -114.69465 6985 ft 239 kts 265°
2026-05-04 04:27 36.07308 -114.71514 6989 ft 240 kts 266°
2026-05-04 04:27 36.07317 -114.73565 6995 ft 242 kts 266°
2026-05-04 04:27 36.07324 -114.75638 7000 ft 241 kts 266°
2026-05-04 04:27 36.07330 -114.77669 6991 ft 226 kts 266°
2026-05-04 04:28 36.07337 -114.79524 6922 ft 208 kts 266°
2026-05-04 04:28 36.07340 -114.81260 6755 ft 197 kts 266°
2026-05-04 04:28 36.07343 -114.82920 6501 ft 189 kts 266°
2026-05-04 04:28 36.07346 -114.84497 6268 ft 178 kts 266°
2026-05-04 04:29 36.07348 -114.85991 6046 ft 170 kts 265°
2026-05-04 04:29 36.07350 -114.87455 5834 ft 171 kts 267°
2026-05-04 04:29 36.07352 -114.88925 5609 ft 171 kts 266°
2026-05-04 04:29 36.07354 -114.90389 5391 ft 170 kts 266°
2026-05-04 04:30 36.07356 -114.91836 5164 ft 169 kts 266°
2026-05-04 04:30 36.07357 -114.93294 4953 ft 170 kts 266°
2026-05-04 04:30 36.07359 -114.94754 4735 ft 169 kts 267°
2026-05-04 04:30 36.07361 -114.96190 4513 ft 167 kts 267°
2026-05-04 04:31 36.07362 -114.97614 4322 ft 165 kts 268°
2026-05-04 04:31 36.07363 -114.99038 4108 ft 166 kts 267°
2026-05-04 04:31 36.07364 -115.00460 3898 ft 164 kts 268°
2026-05-04 04:31 36.07365 -115.01869 3687 ft 164 kts 268°
2026-05-04 04:32 36.07365 -115.03272 3484 ft 162 kts 269°
2026-05-04 04:32 36.07366 -115.04619 3289 ft 150 kts 268°
2026-05-04 04:32 36.07367 -115.05880 3133 ft 144 kts 269°
2026-05-04 04:32 36.07367 -115.07097 2982 ft 141 kts 268°
2026-05-04 04:33 36.07366 -115.08301 2805 ft 140 kts 266°
2026-05-04 04:33 36.07370 -115.09514 2606 ft 142 kts 268°
2026-05-04 04:33 36.07368 -115.10711 2355 ft 141 kts 267°
2026-05-04 04:33 36.07370 -115.11915 2194 ft 140 kts 267°
2026-05-04 04:34 36.07367 -115.13090 2073 ft 125 kts 268°
2026-05-04 04:34 36.07366 -115.13944 2100 ft 79 kts 271°
2026-05-04 04:34 36.07364 -115.14395 2118 ft 27 kts 270°
2026-05-04 04:34 36.07364 -115.14622 2122 ft 26 kts 270°
2026-05-04 04:35 36.07382 -115.14808 2128 ft 22 kts 285°
2026-05-04 04:35 36.07433 -115.14952 2132 ft 11 kts 292°
2026-05-04 04:35 36.07468 -115.15046 2135 ft 13 kts 300°
2026-05-04 04:35 36.07503 -115.15106 2141 ft 5 kts 315°
2026-05-04 04:36 36.07531 -115.15130 2145 ft 10 kts 327°
2026-05-04 04:36 36.07595 -115.15173 2151 ft 9 kts 335°
2026-05-04 04:36 36.07652 -115.15204 2153 ft 9 kts 336°
2026-05-04 04:36 36.07709 -115.15236 2154 ft 9 kts 335°
2026-05-04 04:37 36.07927 -115.15364 2152 ft 16 kts 334°
2026-05-04 04:37 36.08040 -115.15429 2152 ft 20 kts 340°
2026-05-04 04:38 36.08172 -115.15504 2147 ft 16 kts 335°
2026-05-04 04:38 36.08279 -115.15565 2141 ft 18 kts 339°
2026-05-04 04:38 36.08342 -115.15532 2135 ft 12 kts 66°
2026-05-04 04:38 36.08381 -115.15430 2129 ft 13 kts 65°
2026-05-04 04:39 36.08423 -115.15366 2124 ft 9 kts 14°
2026-05-04 04:39 36.08473 -115.15389 2122 ft 2 kts 330°
2026-05-04 04:39 36.08486 -115.15397 2123 ft 2 kts 333°
2026-05-04 04:39 36.08492 -115.15400 2123 ft 0 kts 334°